Regional Weather Roundup
Issued by NWS Albany, NY

Home | Current Version | Previous Version | Text Only | Print | Product List | Glossary On
Versions: 1 2 3 4 5 6 7 8 9 10 11 12 13 14 15 16 17 18 19 20 21 22 23 24 25 26 27 28 29 30 31 32 33 34 35 36 37 38 39 40 41 42 43 44 45 46 47 48 49 50
000
ASUS41 KALY 280010
RWRALY

NEW YORK STATE HOURLY WEATHER ROUNDUP
NATIONAL WEATHER SERVICE ALBANY NY
800 PM EDT MON APR 27 2015

NOTE: "FAIR" INDICATES FEW OR NO CLOUDS BELOW 12,000 FEET WITH NO
SIGNIFICANT WEATHER AND/OR NO OBSTRUCTIONS TO VISIBILITY.

NYZ032-033-038>043-046>054-057>066-NYZ062>081-280100-
EAST


CITY           SKY/WX    TMP DP  RH WIND       PRES   REMARKS
ALBANY         LGT RAIN  51  40  65 N12       29.73R
GLENS FALLS    CLOUDY    51  39  63 N9        29.73R
POUGHKEEPSIE   CLOUDY    55  35  47 NW13      29.70R
NEWBURGH       MOCLDY    54  36  50 N14G25    29.71R
MONTGOMERY     CLOUDY    53  35  50 NW13      29.71R
WHITE PLAINS   MOCLDY    55  31  39 N22G28    29.66R
ISLIP          CLOUDY    56  33  42 NW14      29.63R
NEW YORK CITY  MOCLDY    57  34  41 NW16      29.66R
CENTRAL PARK   CLOUDY    58  31  35 NW14G23   29.70R
$$

NYZ005>009-017-018-044>046-055-056-280100-
CENTRAL


CITY           SKY/WX    TMP DP  RH WIND       PRES   REMARKS
FULTON         CLOUDY    44  37  76 W7        29.87R
SYRACUSE       CLOUDY    45  38  76 W6        29.87R
ROME           CLOUDY    44  36  73 W12       29.86R
ELMIRA         LGT RAIN  47  37  68 NW6       29.86R
BINGHAMTON     LGT RAIN  42  37  82 N14       29.81R
MONTICELLO     CLOUDY    46  34  61 NW16G24   29.76R
$$

NYZ026>034-041>043-280100-
NORTH


CITY           SKY/WX    TMP DP  RH WIND       PRES   REMARKS
WATERTOWN      CLOUDY    44  38  79 S3        29.85R
FORT DRUM      NOT AVBL
MASSENA        CLOUDY    55  40  56 N3        29.81R
SARANAC LAKE   CLOUDY    44  40  85 N6        29.76R
PLATTSBURGH    LGT RAIN  48  45  89 NW8       29.77R
$$

NYZ001>004-010>016-019>021-280100-
WEST


CITY           SKY/WX    TMP DP  RH WIND       PRES   REMARKS
NIAGARA FALLS  MOCLDY    48  38  68 W6        29.93R
BUFFALO        MOCLDY    40  35  83 SW14      29.94R WCI  32
DUNKIRK        CLOUDY    43  36  76 SW10      29.97R
JAMESTOWN      CLOUDY    39  34  81 W5        29.94R
WELLSVILLE     CLOUDY    40  34  79 NW8       29.90R WCI  34
ROCHESTER      CLOUDY    49  41  74 W8        29.90R
PENN YAN       LGT RAIN  46  39  76 NW10      29.87S
$$

             KEY
       WCI = WIND CHILL INDEX
       VSB = VISIBILITY
       HX  = HEAT INDEX
$$



USA.gov is the U.S. government's official web portal to all federal, state and local government web resources and services.